Erie, CO

12:40 AM MST on January 20, 2018 (GMT -0700)
Erie Municipal Airport

Weather History for KEIK - June, 2013

Change the Weather History Date:

Sunday, June 30, 2013

  Actual Average (KBJC) Record (KBJC)
Temperature  
Mean Temperature 70 °F -  
Max Temperature 80 °F 85 °F 101 °F (1990)
Min Temperature 61 °F 59 °F 47 °F (1987)
Cooling Degree Days 6    
Growing Degree Days 20 (Base 50)    
Moisture  
Dew Point 54 °F    
Average Humidity 62    
Maximum Humidity 83    
Minimum Humidity 37    
Precipitation  
Precipitation 0.00 in - - ()
Sea Level Pressure  
Sea Level Pressure 30.22 in    
Wind  
Wind Speed 5 mph (NNW)    
Max Wind Speed 12 mph    
Max Gust Speed 16 mph    
Visibility 10 miles    
Events Rain    
Averages and records for this station are not official NWS values.
T = Trace of Precipitation, MM = Missing Value Source: NWS Daily Summary

Daily Weather History Graph

Daily Weather History Graph

Search for Another Location

Airport or City:

Trip Planner

Search our weather history database for the weather conditions in past years. The results will help you decide how hot, cold, wet, or windy it might be!

Date:

Astronomy

Jun. 30, 2013 Rise Set
Actual Time 5:34 AM MDT 8:33 PM MDT
Civil Twilight 5:01 AM MDT 9:05 PM MDT
Nautical Twilight 4:20 AM MDT 9:47 PM MDT
Astronomical Twilight 3:32 AM MDT 10:35 PM MDT
Moon 12:34 AM MDT (6/30) 1:50 PM MDT (6/30)
Length of Visible Light 16h 03m
Length of Day
14h 58m
Last Quarter, 45% of the Moon is Illuminated
Jun 30
Last Quarter
Jul 8
New
Jul 15
First Quarter
Jul 22
Full
Jul 29
Last Quarter

Hourly Weather History & Observations

Time (MDT) Temp. Dew Point Humidity Pressure Visibility Wind Dir Wind Speed Gust Speed Precip Events Conditions
12:15 AM 66.7 °F 54.0 °F 63% 30.22 in 10.0 mi Calm Calm - N/A   Scattered Clouds
12:35 AM 69.6 °F 52.3 °F 54% 30.23 in 10.0 mi Calm Calm - N/A   Mostly Cloudy
12:55 AM 69.8 °F 51.8 °F 53% 30.23 in 10.0 mi Calm Calm - N/A   Scattered Clouds
1:15 AM 68.7 °F 52.5 °F 56% 30.23 in 10.0 mi North 3.5 mph - N/A   Clear
1:35 AM 64.8 °F 54.1 °F 68% 30.22 in 10.0 mi North 3.5 mph - N/A   Clear
1:55 AM 65.7 °F 54.0 °F 66% 30.22 in 10.0 mi NE 4.6 mph - N/A   Clear
2:15 AM 65.7 °F 53.6 °F 65% 30.22 in 10.0 mi NNE 6.9 mph - N/A   Clear
2:35 AM 65.8 °F 53.6 °F 65% 30.21 in 10.0 mi NNE 8.1 mph - N/A   Clear
2:55 AM 65.8 °F 54.3 °F 66% 30.22 in 10.0 mi NNE 9.2 mph - N/A   Clear
3:15 AM 64.4 °F 55.0 °F 72% 30.22 in 10.0 mi North 6.9 mph - N/A   Clear
3:35 AM 64.0 °F 55.4 °F 73% 30.22 in 10.0 mi North 9.2 mph - N/A   Clear
3:55 AM 63.1 °F 56.5 °F 79% 30.22 in 10.0 mi North 6.9 mph - N/A   Clear
4:15 AM 63.1 °F 56.7 °F 79% 30.22 in 10.0 mi North 6.9 mph - N/A   Clear
4:35 AM 62.6 °F 56.5 °F 80% 30.22 in 10.0 mi NNW 5.8 mph - N/A   Clear
4:55 AM 62.1 °F 56.5 °F 82% 30.22 in 10.0 mi North 6.9 mph - N/A   Clear
5:15 AM 61.7 °F 56.3 °F 82% 30.22 in 10.0 mi North 5.8 mph - N/A   Clear
5:35 AM 61.5 °F 55.9 °F 82% 30.22 in 10.0 mi NNW 5.8 mph - N/A   Clear
5:55 AM 61.7 °F 55.4 °F 80% 30.22 in 10.0 mi North 4.6 mph - N/A   Clear
6:15 AM 61.7 °F 55.6 °F 80% 30.22 in 10.0 mi NW 3.5 mph - N/A   Clear
6:35 AM 61.7 °F 56.3 °F 82% 30.22 in 10.0 mi WNW 4.6 mph - N/A   Clear
6:55 AM 62.8 °F 55.9 °F 78% 30.20 in 10.0 mi Calm Calm - N/A   Mostly Cloudy
7:15 AM 63.5 °F 55.4 °F 75% 30.21 in 10.0 mi WNW 3.5 mph - N/A   Scattered Clouds
7:35 AM 64.2 °F 55.0 °F 72% 30.22 in 10.0 mi North 5.8 mph - N/A   Scattered Clouds
7:55 AM 63.9 °F 55.0 °F 73% 30.22 in 10.0 mi NNE 3.5 mph - N/A   Mostly Cloudy
8:15 AM 63.9 °F 55.9 °F 75% 30.22 in 10.0 mi NNE 5.8 mph - N/A Rain Light Rain
8:35 AM 65.1 °F 56.7 °F 74% 30.24 in 10.0 mi North 6.9 mph - N/A   Scattered Clouds
8:55 AM 65.7 °F 55.8 °F 70% 30.24 in 10.0 mi North 6.9 mph - N/A   Scattered Clouds
9:15 AM 64.8 °F 56.5 °F 74% 30.24 in 10.0 mi NNW 5.8 mph - N/A   Scattered Clouds
9:35 AM 65.7 °F 56.5 °F 72% 30.24 in 10.0 mi NNW 5.8 mph - N/A   Scattered Clouds
9:55 AM 66.4 °F 56.1 °F 69% 30.24 in 10.0 mi NNW 6.9 mph - N/A   Scattered Clouds
10:15 AM 67.1 °F 56.5 °F 69% 30.24 in 10.0 mi NNW 5.8 mph - N/A   Scattered Clouds
10:35 AM 67.1 °F 55.6 °F 66% 30.24 in 10.0 mi NNW 4.6 mph - N/A   Scattered Clouds
10:55 AM 69.6 °F 55.8 °F 61% 30.24 in 10.0 mi NNW 8.1 mph - N/A   Scattered Clouds
11:15 AM 69.3 °F 55.2 °F 61% 30.24 in 10.0 mi North 4.6 mph - N/A   Mostly Cloudy
11:35 AM 73.0 °F 54.1 °F 51% 30.23 in 10.0 mi NNE 3.5 mph - N/A   Scattered Clouds
11:55 AM 73.4 °F 54.1 °F 51% 30.23 in 10.0 mi North 9.2 mph - N/A   Clear
12:15 PM 71.6 °F 54.1 °F 54% 30.24 in 10.0 mi North 6.9 mph 16.1 mph N/A   Clear
12:35 PM 70.9 °F 55.0 °F 57% 30.25 in 10.0 mi NNW 8.1 mph - N/A   Clear
12:55 PM 70.7 °F 55.0 °F 58% 30.24 in 10.0 mi North 6.9 mph - N/A   Mostly Cloudy
1:15 PM 71.6 °F 54.5 °F 55% 30.24 in 10.0 mi North 11.5 mph - N/A   Mostly Cloudy
1:35 PM 71.6 °F 54.5 °F 55% 30.23 in 10.0 mi North 8.1 mph - N/A   Scattered Clouds
1:55 PM 71.6 °F 55.8 °F 57% 30.23 in 10.0 mi NW 5.8 mph - N/A   Scattered Clouds
2:15 PM 71.2 °F 56.7 °F 60% 30.23 in 10.0 mi West 8.1 mph - N/A   Clear
2:35 PM 73.9 °F 55.8 °F 53% 30.21 in 10.0 mi West 9.2 mph - N/A   Scattered Clouds
2:55 PM 74.3 °F 54.5 °F 50% 30.22 in 10.0 mi WNW 5.8 mph - N/A   Clear
3:15 PM 75.0 °F 55.0 °F 50% 30.21 in 10.0 mi NW 4.6 mph - N/A   Clear
3:35 PM 76.6 °F 54.5 °F 46% 30.22 in 10.0 mi NW 8.1 mph - N/A   Clear
3:55 PM 76.1 °F 54.0 °F 46% 30.21 in 10.0 mi West 6.9 mph - N/A   Clear
4:15 PM 75.4 °F 53.8 °F 47% 30.21 in 10.0 mi West 9.2 mph - N/A   Clear
4:35 PM 75.6 °F 53.6 °F 46% 30.20 in 10.0 mi WNW 8.1 mph - N/A   Clear
4:55 PM 77.0 °F 52.2 °F 42% 30.20 in 10.0 mi WNW 6.9 mph - N/A   Clear
5:15 PM 79.0 °F 52.2 °F 39% 30.20 in 10.0 mi West 8.1 mph - N/A   Clear
5:35 PM 80.2 °F 52.5 °F 38% 30.19 in 10.0 mi NW 5.8 mph - N/A   Clear
5:55 PM 80.4 °F 52.0 °F 37% 30.19 in 10.0 mi NW 4.6 mph - N/A   Clear
6:15 PM 80.1 °F 51.8 °F 37% 30.19 in 10.0 mi North 4.6 mph - N/A   Scattered Clouds
6:35 PM 80.2 °F 52.3 °F 38% 30.20 in 10.0 mi North 8.1 mph - N/A   Scattered Clouds
6:55 PM 76.8 °F 53.2 °F 44% 30.20 in 10.0 mi NNE 4.6 mph - N/A   Scattered Clouds
7:15 PM 77.2 °F 49.8 °F 38% 30.20 in 10.0 mi ENE 6.9 mph - N/A   Mostly Cloudy
7:35 PM 77.0 °F 49.8 °F 38% 30.21 in 10.0 mi NE 6.9 mph - N/A   Overcast
7:55 PM 76.3 °F 50.0 °F 40% 30.22 in 10.0 mi ESE 8.1 mph - N/A   Overcast
8:15 PM 75.2 °F 50.2 °F 41% 30.22 in 10.0 mi ESE 6.9 mph - N/A   Overcast
8:35 PM 70.7 °F 53.6 °F 55% 30.21 in 10.0 mi SE 9.2 mph - N/A Rain Light Rain
8:55 PM 70.0 °F 53.4 °F 56% 30.22 in 10.0 mi SE 5.8 mph - N/A   Clear
9:15 PM 68.9 °F 54.1 °F 59% 30.23 in 10.0 mi Calm Calm - N/A   Clear
9:35 PM 66.7 °F 54.9 °F 66% 30.24 in 10.0 mi Calm Calm - N/A   Clear
9:55 PM 66.4 °F 55.0 °F 67% 30.24 in 10.0 mi South 3.5 mph - N/A   Clear
10:15 PM 66.4 °F 54.7 °F 66% 30.24 in 10.0 mi SSE 6.9 mph - N/A   Clear
10:35 PM 65.8 °F 54.7 °F 67% 30.24 in 10.0 mi WNW 3.5 mph - N/A   Clear
10:55 PM 63.0 °F 55.0 °F 75% 30.24 in 10.0 mi Calm Calm - N/A   Clear
11:15 PM 63.7 °F 54.7 °F 72% 30.24 in 10.0 mi Calm Calm - N/A   Scattered Clouds
11:35 PM 62.1 °F 56.1 °F 81% 30.24 in 10.0 mi Calm Calm - N/A   Clear
11:55 PM 61.5 °F 56.3 °F 83% 30.24 in 10.0 mi Calm Calm - N/A   Clear